This is the latest recevied weather packets stored in our database for station/object DP0GVN-13. If no packets are shown the sender has not sent any weather packets the latest 10 day(s).
| Time | Temp. | Humidity | Pressure | Rain* | Wind** | Luminosity | Snow |
|---|---|---|---|---|---|---|---|
| 1777370412 | -18.89° C | 84% | 982 hPa | - | - | 0 W/m² | - |
| 1777368612 | -18.89° C | 83% | 982.1 hPa | - | - | 0 W/m² | - |
| 1777366812 | -20° C | 83% | 982 hPa | - | - | 0 W/m² | - |
| 1777365012 | -20° C | 82% | 981.9 hPa | - | - | 0 W/m² | - |
| 1777363212 | -18.89° C | 82% | 981.3 hPa | - | - | 0 W/m² | - |
| 1777361412 | -20° C | 83% | 981.1 hPa | - | - | 0 W/m² | - |
| 1777359612 | -18.89° C | 82% | 981.1 hPa | - | - | 0 W/m² | - |
| 1777357812 | -18.89° C | 82% | 981.1 hPa | - | - | 0 W/m² | - |
| 1777356012 | -20° C | 83% | 980.7 hPa | - | - | 0 W/m² | - |
| 1777354212 | -20° C | 83% | 980.6 hPa | - | - | 0 W/m² | - |
| 1777352412 | -17.78° C | 84% | 980.4 hPa | - | - | 0 W/m² | - |
| 1777350612 | -17.78° C | 84% | 980.4 hPa | - | - | 0 W/m² | - |
| 1777348812 | -16.67° C | 86% | 980.2 hPa | - | - | 0 W/m² | - |
| 1777347012 | -16.67° C | 84% | 980.2 hPa | - | - | 0 W/m² | - |
| 1777345212 | -17.78° C | 80% | 980.1 hPa | - | - | 0 W/m² | - |
| 1777343412 | -21.67° C | 82% | 979.9 hPa | - | - | 0 W/m² | - |
| 1777341612 | -21.67° C | 82% | 979.7 hPa | - | - | 0 W/m² | - |
| 1777339812 | -20.56° C | 84% | 979.7 hPa | - | - | 0 W/m² | - |
| 1777338012 | -20.56° C | 84% | 979.5 hPa | - | - | 0 W/m² | - |
| 1777336212 | -18.89° C | 83% | 979.2 hPa | - | - | 0 W/m² | - |
| 1777334413 | -20° C | 84% | 979 hPa | - | - | 0 W/m² | - |
| 1777332612 | -18.89° C | 85% | 978.8 hPa | - | - | 0 W/m² | - |
| 1777330812 | -16.67° C | 86% | 978.7 hPa | - | - | 0 W/m² | - |
| 1777329012 | -15.56° C | 88% | 978.4 hPa | - | - | 0 W/m² | - |
| 1777327212 | -15° C | 88% | 978.2 hPa | - | - | 0 W/m² | - |
* Rain since midnight (hover to see other rain measurements)
** Current wind speed in m/s (hover to see current wind gust speed)